Weather reports worldwide

Advertisment
Görlitz, Germany (10499): temperature & dewpoint: 20.06.2019 17:00:00 - 26.06.2019 17:00:00 (CEST)Görlitz, Germany (10499): temperature 5cm & temperature -5cm: 20.06.2019 17:00:00 - 26.06.2019 17:00:00 (CEST)Görlitz, Germany (10499): temperature -20cm & temperature -100cm: 20.06.2019 17:00:00 - 26.06.2019 17:00:00 (CEST)Görlitz, Germany (10499): wind speed & gusts: 20.06.2019 17:00:00 - 26.06.2019 17:00:00 (CEST)Görlitz, Germany (10499): wind direction: 20.06.2019 17:00:00 - 26.06.2019 17:00:00 (CEST)Görlitz, Germany (10499): reduced air pressure: 20.06.2019 17:00:00 - 26.06.2019 17:00:00 (CEST)Görlitz, Germany (10499): visibility: 20.06.2019 17:00:00 - 26.06.2019 17:00:00 (CEST)Görlitz, Germany (10499): sunshine duration: 20.06.2019 17:00:00 - 26.06.2019 17:00:00 (CEST)Görlitz, Germany (10499): precipitation: 20.06.2019 17:00:00 - 26.06.2019 17:00:00 (CEST)
Date & Time tt [°C] td [°C] tt 5cm [°C] tt -5cm [°C] tt -20cm [°C] tt -100cm [°C] ff [km/h] ff [kn] fx [km/h] fx [kn] dd ppp [hPa] vv [km] sd [min] rr [mm]
26.06.2019 17:00:00 35,2 16,9 39,0 34,8 27,8 18,9 18 10 32 17 WSW 1017,9 13 60 0,0
26.06.2019 16:00:00 35,3 16,8 40,1 34,4 27,2 18,9 17 9 35 19 WSW 1018,4 10 60 0,0
26.06.2019 15:00:00 34,7 15,9 40,2 33,7 26,7 18,9 18 10 32 17 W 1018,8 11 60 0,0
26.06.2019 14:00:00 34,1 17,7 39,8 32,8 26,1 18,9 16 9 34 18 W 1019,1 17 60 0,0
26.06.2019 13:00:00 33,3 17,5 38,2 31,5 25,5 18,8 19 10 33 18 W 1019,9 15 60 0,0
26.06.2019 12:00:00 32,4 19,1 38,3 30,0 25,1 18,8 15 8 30 16 SW 1020,2 10 60 0,0
26.06.2019 11:00:00 31,0 20,5 35,9 28,4 24,8 18,8 21 12 29 15 SSW 1020,4 11 60 0,0
26.06.2019 10:00:00 29,1 20,0 33,2 26,9 24,6 18,8 20 11 31 17 SSW 1020,6 15 60 0,0
26.06.2019 09:00:00 28,3 20,0 31,8 25,7 24,7 18,8 21 11 31 17 SSW 1020,4 12 60 0,0
26.06.2019 08:00:00 26,3 19,3 28,5 24,8 24,8 18,8 18 10 32 18 SSW 1020,5 15 60 0,0
26.06.2019 07:00:00 24,9 18,7 25,6 24,4 25,0 18,7 16 8 24 13 S 1020,7 19 60 0,0
26.06.2019 06:00:00 23,7 18,3 23,2 24,5 25,3 18,7 12 7 21 11 S 1020,9 16 21 0,0
26.06.2019 05:00:00 23,0 18,1 21,2 24,9 25,5 18,7 11 6 24 13 S 1021,2 19 0 0,0
26.06.2019 04:00:00 23,9 18,0 22,4 25,3 25,8 18,7 18 10 28 15 S 1021,3 20 0 0,0
26.06.2019 03:00:00 24,8 17,9 23,3 25,8 26,2 18,7 20 11 29 16 S 1021,3 24 0 0,0
26.06.2019 02:00:00 25,0 17,9 23,6 26,3 26,5 18,7 21 12 29 15 S 1021,4 26 0 0,0
26.06.2019 01:00:00 24,7 18,0 23,0 26,9 26,8 18,7 18 10 24 13 S 1021,4 26 0 0,0
26.06.2019 00:00:00 23,6 18,2 21,4 27,7 27,2 18,7 12 7 17 9 S 1021,6 27 0 0,0
25.06.2019 23:00:00 23,3 18,2 21,0 28,7 27,4 18,7 11 6 13 7 SSE 1021,4 28 0 0,0
25.06.2019 22:00:00 25,9 18,6 22,7 29,9 27,6 18,7 9 5 11 6 SSE 1021,1 31 0 0,0
25.06.2019 21:00:00 27,5 18,8 25,8 31,2 27,7 18,7 9 5 15 8 SSE 1020,7 35 55 0,0
25.06.2019 20:00:00 29,9 18,2 30,2 32,3 27,6 18,6 9 5 22 12 SSE 1020,4 36 60 0,0
25.06.2019 19:00:00 31,0 17,0 32,9 33,1 27,3 18,6 11 6 21 11 SSE 1020,5 44 60 0,0
25.06.2019 18:00:00 32,0 15,8 36,2 33,5 26,9 18,6 12 7 29 16 S 1020,6 28 60 0,0
25.06.2019 17:00:00 31,9 15,5 36,7 33,7 26,3 18,6 13 7 24 13 S 1020,8 21 60 0,0
25.06.2019 16:00:00 30,7 15,8 36,1 33,5 25,7 18,6 8 5 19 10 SE 1021,1 17 60 0,0
25.06.2019 15:00:00 30,0 15,5 36,1 32,6 24,9 18,6 11 6 27 15 SE 1021,6 23 60 0,0
25.06.2019 14:00:00 30,5 16,5 37,4 31,3 24,3 18,6 7 4 23 13 SE 1021,8 16 60 0,0
25.06.2019 13:00:00 29,4 15,4 35,7 29,7 23,6 18,6 5 3 21 11 SSW 1022,2 24 60 0,0
25.06.2019 12:00:00 27,4 13,9 32,4 27,9 23,1 18,6 13 7 25 14 ESE 1022,6 25 60 0,0
25.06.2019 11:00:00 26,3 14,2 32,0 26,1 22,8 18,6 9 5 17 9 SSE 1022,7 26 60 0,0
25.06.2019 10:00:00 24,6 14,4 29,7 24,3 22,6 18,6 8 4 20 11 SE 1022,9 21 60 0,0
25.06.2019 09:00:00 23,1 14,5 26,3 22,9 22,6 18,5 12 7 20 11 E 1023,2 29 60 0,0
25.06.2019 08:00:00 21,8 14,8 24,8 21,8 22,7 18,5 4 2 8 4 NNE 1023,4 22 60 0,0
25.06.2019 07:00:00 17,5 13,6 20,6 21,3 23,0 18,5 2 1 10 5 NNE 1023,6 19 60 0,0
25.06.2019 06:00:00 16,7 13,6 16,4 21,4 23,4 18,5 9 5 11 6 SE 1023,5 16 32 0,0
25.06.2019 05:00:00 16,3 13,5 14,2 21,9 23,7 18,5 9 5 13 7 SE 1023,5 21 0 0,0
25.06.2019 04:00:00 16,8 14,1 14,1 22,5 24,1 18,5 6 3 8 5 ESE 1023,5 22 0 0,0
25.06.2019 03:00:00 16,9 14,4 14,1 23,2 24,4 18,5 4 2 6 4 SE 1023,7 19 0 0,0
25.06.2019 02:00:00 17,1 14,1 14,9 23,9 24,8 18,5 4 2 10 6 SE 1023,9 22 0 0,0
25.06.2019 01:00:00 18,9 14,6 15,4 24,7 25,1 18,5 5 3 7 4 E 1023,4 31 0 0,0
25.06.2019 00:00:00 20,3 14,7 16,5 25,5 25,4 18,5 0 0 9 5 N 1023,5 32 0 0,0
24.06.2019 23:00:00 21,5 14,5 18,5 26,5 25,7 18,5 7 4 15 8 SE 1023,3 37 0 0,0
24.06.2019 22:00:00 24,1 14,3 22,5 27,6 25,9 18,5 11 6 19 10 E 1022,7 40 0 0,0
24.06.2019 21:00:00 25,1 14,5 23,6 28,8 25,9 18,5 9 5 18 10 E 1022,3 58 54 0,0
24.06.2019 20:00:00 26,4 14,0 27,0 29,9 25,8 18,5 10 6 23 12 E 1022,1 50 60 0,0
24.06.2019 19:00:00 27,1 13,4 29,1 30,8 25,6 18,5 14 7 25 14 E 1022,1 47 60 0,0
24.06.2019 18:00:00 27,5 13,6 31,0 31,2 25,1 18,5 15 8 27 15 E 1022,0 40 60 0,0
24.06.2019 17:00:00 27,6 12,7 31,7 31,3 24,6 18,5 13 7 26 14 E 1022,1 31 60 0,0
24.06.2019 16:00:00 27,3 11,6 32,6 30,9 24,0 18,5 12 6 26 14 E 1022,3 25 60 0,0
24.06.2019 15:00:00 26,9 10,2 32,5 30,0 23,4 18,5 13 7 26 14 E 1022,6 21 60 0,0
24.06.2019 14:00:00 26,2 8,8 31,4 28,8 22,7 18,5 16 8 34 18 E 1022,9 21 60 0,0
24.06.2019 13:00:00 25,3 8,9 30,5 27,4 22,1 18,5 15 8 27 15 ENE 1023,5 19 60 0,0
24.06.2019 12:00:00 24,5 9,3 29,7 25,7 21,7 18,5 13 7 27 15 E 1023,7 22 60 0,0
24.06.2019 11:00:00 23,0 7,6 27,9 24,0 21,3 18,5 16 8 27 14 E 1023,9 16 60 0,0
24.06.2019 10:00:00 22,1 7,5 26,2 22,4 21,1 18,5 15 8 30 16 E 1024,1 35 60 0,0
24.06.2019 09:00:00 21,1 10,2 25,1 20,9 21,1 18,5 10 5 19 11 ENE 1024,1 32 60 0,0
24.06.2019 08:00:00 19,1 10,0 22,0 19,7 21,3 18,5 6 3 10 6 NE 1024,2 42 60 0,0
24.06.2019 07:00:00 14,5 9,0 16,8 19,1 21,6 18,5 3 2 7 4 N 1024,7 41 60 0,0
24.06.2019 06:00:00 11,8 9,1 11,4 19,3 22,0 18,4 4 2 7 4 NE 1025,0 30 50 0,0
24.06.2019 05:00:00 10,8 9,4 8,3 19,8 22,3 18,4 4 2 8 4 NNW 1024,6 29 0 0,0
24.06.2019 04:00:00 12,1 9,7 8,7 20,4 22,7 18,4 0 0 8 4 N 1024,0 39 0 0,0
24.06.2019 03:00:00 12,7 9,5 10,1 21,1 23,1 18,4 4 2 9 5 ENE 1023,9 42 0 0,0
24.06.2019 02:00:00 16,6 9,6 12,5 21,8 23,5 18,4 6 3 12 7 E 1023,1 59 0 0,0
24.06.2019 01:00:00 16,1 9,7 11,5 22,6 23,8 18,4 6 3 13 7 SE 1023,3 57 0 0,0
24.06.2019 00:00:00 18,6 9,5 14,8 23,5 24,2 18,4 6 3 11 6 E 1023,0 70 0 0,0
23.06.2019 23:00:00 18,3 10,8 15,6 24,4 24,5 18,4 8 4 13 7 ENE 1022,4 50 0 0,0
23.06.2019 22:00:00 19,5 11,2 17,4 25,6 24,7 18,5 9 5 14 7 ENE 1021,8 41 10 0,0
23.06.2019 21:00:00 22,2 11,2 20,3 26,8 24,7 18,5 7 4 20 11 ENE 1021,0 70 60 0,0
23.06.2019 20:00:00 23,7 10,3 23,9 27,8 24,7 18,5 12 7 19 10 E 1020,5 59 60 0,0
23.06.2019 19:00:00 24,6 10,1 26,5 28,4 24,5 18,5 10 6 21 11 ENE 1020,2 63 60 0,0
23.06.2019 18:00:00 24,9 11,2 27,3 28,9 24,1 18,5 13 7 23 13 NE 1020,3 62 59 0,0
23.06.2019 17:00:00 25,3 10,7 29,6 29,0 23,7 18,5 16 9 27 15 ENE 1020,3 26 48 0,0
23.06.2019 16:00:00 24,9 11,6 29,5 28,5 23,3 18,5 12 6 28 15 E 1020,7 23 53 0,0
23.06.2019 15:00:00 24,0 12,0 28,6 27,9 22,8 18,5 18 10 36 19 E 1021,0 17 60 0,0
23.06.2019 14:00:00 23,5 12,1 27,6 27,0 22,3 18,5 18 10 38 20 ENE 1021,3 17 60 0,0
23.06.2019 13:00:00 23,2 12,1 27,4 26,0 21,9 18,5 21 11 36 19 E 1021,3 17 60 0,0
23.06.2019 12:00:00 22,1 11,5 26,0 24,7 21,5 18,5 22 12 37 20 ENE 1021,3 18 60 0,0
23.06.2019 11:00:00 21,3 12,2 24,9 23,4 21,2 18,5 19 10 30 16 E 1021,3 16 60 0,0
23.06.2019 10:00:00 20,8 12,5 24,6 21,9 21,0 18,5 19 11 30 16 ENE 1021,1 24 60 0,0
23.06.2019 09:00:00 19,6 12,6 22,9 20,5 21,0 18,4 16 9 29 15 ENE 1020,9 20 60 0,0
23.06.2019 08:00:00 18,0 12,2 19,9 19,7 21,2 18,4 15 8 23 12 NE 1020,7 36 60 0,0
23.06.2019 07:00:00 16,0 11,4 17,2 19,3 21,5 18,4 9 5 16 9 NNE 1020,7 37 60 0,0
23.06.2019 06:00:00 13,7 10,8 13,5 19,3 21,8 18,4 10 5 14 8 NE 1020,7 32 25 0,0
23.06.2019 05:00:00 12,4 10,2 11,3 19,8 22,1 18,4 10 5 16 9 NNE 1020,5 29 0 0,0
23.06.2019 04:00:00 15,4 10,5 14,2 20,3 22,4 18,4 10 6 19 10 ENE 1020,1 41 0 0,0
23.06.2019 03:00:00 16,0 10,4 14,7 20,8 22,8 18,4 11 6 18 10 ENE 1020,3 45 0 0,0
23.06.2019 02:00:00 16,2 10,4 14,8 21,4 23,1 18,4 9 5 22 12 ENE 1020,4 48 0 0,0
23.06.2019 01:00:00 16,6 10,1 15,2 22,1 23,4 18,4 11 6 21 11 ENE 1020,5 51 0 0,0
23.06.2019 00:00:00 17,1 10,0 15,8 22,8 23,8 18,4 14 7 22 12 NE 1020,1 55 0 0,0
22.06.2019 23:00:00 16,6 10,7 15,4 23,7 24,0 18,4 12 7 17 9 NE 1019,9 48 0 0,0
22.06.2019 22:00:00 18,7 11,0 17,0 24,8 24,2 18,4 10 6 18 10 ENE 1019,4 30 0 0,0
22.06.2019 21:00:00 21,9 10,4 20,7 25,9 24,3 18,4 10 5 24 13 E 1018,7 65 58 0,0
22.06.2019 20:00:00 23,3 10,4 23,5 26,8 24,2 18,4 16 8 29 15 E 1018,4 49 58 0,0
22.06.2019 19:00:00 24,4 10,3 26,4 27,3 24,1 18,4 17 9 29 16 E 1018,2 34 54 0,0
22.06.2019 18:00:00 24,7 10,5 27,9 27,2 23,9 18,4 17 9 28 15 E 1018,8 25 56 0,0
22.06.2019 17:00:00 24,3 11,7 28,0 27,0 23,7 18,4 15 8 32 17 E 1019,2 51 3 0,0
22.06.2019 16:00:00 23,8 12,0 25,7 27,5 23,4 18,4 15 8 34 18 ENE 1019,5 49 5 0,0
22.06.2019 15:00:00 24,3 11,8 27,8 27,4 23,0 18,4 19 11 40 21 ENE 1020,0 30 26 0,0
22.06.2019 14:00:00 23,5 11,6 26,4 26,9 22,6 18,4 17 9 34 19 ENE 1020,7 29 38 0,0
22.06.2019 13:00:00 23,5 12,2 27,8 25,7 22,2 18,4 18 10 34 19 E 1021,2 20 54 0,0
22.06.2019 12:00:00 23,1 12,9 27,1 24,7 21,9 18,4 17 9 35 19 E 1021,1 25 33 0,0
22.06.2019 11:00:00 22,4 13,6 25,5 23,8 21,6 18,4 20 11 33 18 ENE 1021,0 27 56 0,0
22.06.2019 10:00:00 21,7 14,0 25,8 22,5 21,5 18,4 19 10 29 16 E 1021,2 18 57 0,0
22.06.2019 09:00:00 21,0 14,6 24,4 21,3 21,5 18,4 16 9 28 15 E 1021,3 16 60 0,0
22.06.2019 08:00:00 19,5 14,8 20,3 20,4 21,6 18,4 14 8 24 13 E 1021,2 32 55 0,0
22.06.2019 07:00:00 17,9 15,1 19,2 19,8 21,8 18,4 12 6 16 9 NE 1020,8 17 51 0,0
22.06.2019 06:00:00 16,2 14,0 15,9 19,9 22,2 18,4 7 4 16 9 E 1021,0 21 18 0,0
22.06.2019 05:00:00 15,2 13,2 14,1 20,2 22,5 18,4 6 3 12 7 ENE 1020,9 22 0 0,0
22.06.2019 04:00:00 14,5 12,7 12,5 20,7 22,8 18,3 5 3 8 4 NNE 1020,8 22 0 0,0
22.06.2019 03:00:00 14,0 12,3 12,6 21,3 23,2 18,3 3 2 9 5 S 1020,7 19 0 0,0
22.06.2019 02:00:00 15,7 12,3 13,6 21,9 23,5 18,3 7 4 9 5 NE 1020,2 35 0 0,0
22.06.2019 01:00:00 16,1 13,2 13,8 22,7 23,8 18,3 5 3 11 6 NNW 1019,9 21 0 0,0
22.06.2019 00:00:00 17,2 14,3 16,4 23,3 24,2 18,3 4 2 9 5 NW 1019,7 33 0 0,0
21.06.2019 23:00:00 17,1 14,7 15,6 24,2 24,4 18,3 4 2 11 6 NW 1019,3 22 0 0,0
21.06.2019 22:00:00 19,7 13,3 17,9 25,3 24,6 18,3 8 4 10 6 NNW 1018,3 6 0 0,0
21.06.2019 21:00:00 21,8 13,9 20,5 26,3 24,7 18,3 5 3 13 7 NW 1017,3 41 7 0,0
21.06.2019 20:00:00 22,9 14,0 24,6 27,2 24,7 18,3 8 4 13 7 NNW 1016,8 46 41 0,0
21.06.2019 19:00:00 23,4 13,9 25,1 27,9 24,5 18,3 9 5 18 10 NW 1016,3 55 50 0,0
21.06.2019 18:00:00 24,3 14,0 28,4 28,2 24,3 18,3 11 6 23 12 NW 1016,1 27 53 0,0
21.06.2019 17:00:00 24,3 14,5 30,2 28,3 24,0 18,3 11 6 25 14 NW 1016,0 24 18 0,0
21.06.2019 16:00:00 24,0 15,0 28,6 28,4 23,6 18,3 9 5 27 15 NW 1016,1 18 54 0,0
21.06.2019 15:00:00 23,6 15,0 26,7 27,6 23,1 18,3 11 6 23 13 WNW 1016,3 22 44 0,0
21.06.2019 14:00:00 22,7 14,1 26,4 26,7 22,8 18,3 10 5 24 13 WNW 1016,5 45 52 0,0
21.06.2019 13:00:00 21,8 15,1 25,9 25,4 22,4 18,3 11 6 22 12 WNW 1017,0 30 37 0,0
21.06.2019 12:00:00 21,0 15,1 25,5 24,3 22,2 18,3 11 6 25 13 W 1017,0 23 52 0,0
21.06.2019 11:00:00 20,0 16,5 23,3 23,1 22,1 18,3 9 5 23 13 WNW 1017,0 17 28 0,0
21.06.2019 10:00:00 19,4 16,0 23,0 22,3 22,1 18,3 13 7 24 13 WNW 1016,6 13 32 0,0
21.06.2019 09:00:00 18,0 16,3 19,8 21,7 22,2 18,2 11 6 27 15 W 1016,2 11 18 0,0
21.06.2019 08:00:00 18,1 15,9 18,6 21,3 22,4 18,2 12 6 19 11 W 1015,6 31 48 0,0
21.06.2019 07:00:00 16,8 16,2 16,4 21,1 22,7 18,2 2 1 8 5 S 1015,3 16 0 0,0
21.06.2019 06:00:00 16,3 15,9 16,4 21,2 22,9 18,2 7 4 9 5 WSW 1015,1 17 0 0,0
21.06.2019 05:00:00 16,7 15,7 16,2 21,6 23,2 18,2 7 4 16 9 S 1014,8 34 0 0,2
21.06.2019 04:00:00 16,7 16,4 16,6 22,1 23,5 18,2 5 3 9 5 ESE 1014,3 4,6 0 1,7
21.06.2019 03:00:00 16,8 16,1 16,6 22,6 23,8 18,2 9 5 21 11 NW 1014,5 7 0 1,2
21.06.2019 02:00:00 16,8 15,2 16,2 23,2 24,1 18,2 13 7 32 18 WNW 1014,5 17 0 0,5
21.06.2019 01:00:00 18,5 16,0 18,2 23,8 24,4 18,1 8 4 10 5 WSW 1013,3 28 0 0,0
21.06.2019 00:00:00 18,9 15,7 17,2 24,4 24,7 18,1 2 1 7 4 WSW 1012,9 43 0 0,0
20.06.2019 23:00:00 19,4 16,3 17,7 25,1 25,0 18,1 5 3 11 6 W 1012,6 49 0 0,0
20.06.2019 22:00:00 20,0 16,1 18,1 26,1 25,2 18,1 4 2 7 4 WNW 1012,3 45 0 0,0
20.06.2019 21:00:00 21,7 15,9 20,1 27,1 25,2 18,1 6 3 10 6 SSW 1011,5 62 26 0,0
20.06.2019 20:00:00 23,9 16,0 25,0 27,9 25,2 18,1 8 4 10 6 SW 1011,2 66 60 0,0
20.06.2019 19:00:00 24,6 14,8 27,5 28,1 25,2 18,1 5 3 12 6 SSW 1010,7 43 60 0,0
20.06.2019 18:00:00 23,1 15,8 27,1 28,4 25,0 18,1 10 5 25 13 W 1010,7 50 18 0,2
20.06.2019 17:00:00 23,9 15,1 24,5 29,5 24,7 18,1 16 9 31 17 W 1011,1 53 28 0,0

tt = temperature
td = dewpoint
tt 5cm = temperature 5cm
tt -5cm = temperature -5cm
tt -20cm = temperature -20cm
tt -100cm = temperature -100cm
ff = wind speed
fx = gusts
dd = wind direction
ppp = reduced air pressure
vv = visibility
sd = sunshine duration
rr = precipitation

Next stations